Location: Heiligenberg
(48.5381°N, 7.3897°E)
Time: 23:57:28
(UTC+00:00)

Cosmos 1300 - Pass Details

Date: 26 May 2022
Orbit: 506 x 508 km, 82.5° (Epoch: 02 July)

Event Time Altitude Azimuth Distance (km) Brightness Sun altitude
Rises 00:56:15 0° 343° (NNW) 2,625 7.1 -17.6°
Reaches altitude 10° 00:58:28 10° 336° (NNW) 1,734 6.0 -17.5°
Maximum altitude 01:02:01 39° 267° (W) 769 3.3 -17.2°
Enters shadow 01:02:46 35° 237° (WSW) 835 3.3 -17.2°
